Weather History for Trenton, NJ

Change the Weather History Date:

Tuesday, May 14, 2013

  Actual Average Record
Temperature  
Mean Temperature 49 °F 60 °F  
Max Temperature 61 °F 71 °F 89 °F (1991)
Min Temperature 37 °F 50 °F 33 °F (1996)
Degree Days  
Heating Degree Days 16 6  
Month to date heating degree days 112 104  
Since 1 July heating degree days 4886 5072  
Cooling Degree Days 0 1  
Month to date cooling degree days 6 14  
Year to date cooling degree days 20 22  
Moisture  
Dew Point 29 °F    
Average Humidity 53    
Maximum Humidity 82    
Minimum Humidity 24    
Precipitation  
Precipitation 0.00 in 0.13 in 1.75 in (1937)
Month to date precipitation 1.95 1.54  
Year to date precipitation 11.43 14.69  
Sea Level Pressure  
Sea Level Pressure 30.09 in    
Wind  
Wind Speed 6 mph (NW)    
Max Wind Speed 15 mph    
Max Gust Speed 22 mph    
Visibility 10 miles    
Events      
T = Trace of Precipitation, MM = Missing Value Source: NWS Daily Summary

Daily Weather History Graph

Daily Weather History Graph

Search for Another Location

Airport:

Trip Planner

Search our weather history database for the weather conditions in past years. The results will help you decide how hot, cold, wet, or windy it might be!

Date:

Astronomy

May. 14, 2013 Rise Set
Actual Time 5:44 AM EDT 8:07 PM EDT
Civil Twilight 5:13 AM EDT 8:38 PM EDT
Nautical Twilight 4:35 AM EDT 9:16 PM EDT
Astronomical Twilight 3:53 AM EDT 9:59 PM EDT
Moon 9:21 AM EDT (5/14) 11:53 PM EDT (5/14)
Length of Visible Light 15h 25m
Length of Day
14h 23m
Waxing Crescent, 19% of the Moon is Illuminated
May 14
Waxing Crescent
May 18
First Quarter
May 25
Full
May 31
Last Quarter
Jun 8
New

Hourly Weather History & Observations

Time (EDT) Temp. Windchill Dew Point Humidity Pressure Visibility Wind Dir Wind Speed Gust Speed Precip Events Conditions
12:53 AM 41.0 °F - 32.0 °F 70% 30.12 in 10.0 mi Calm Calm - N/A   Clear
1:53 AM 41.0 °F 38.0 °F 32.0 °F 70% 30.11 in 10.0 mi NNW 4.6 mph - N/A   Clear
2:53 AM 39.9 °F 37.8 °F 32.0 °F 73% 30.12 in 10.0 mi NNW 3.5 mph - N/A   Clear
3:53 AM 37.9 °F 35.5 °F 32.0 °F 79% 30.12 in 10.0 mi NW 3.5 mph - N/A   Clear
4:53 AM 37.9 °F 33.5 °F 32.0 °F 79% 30.12 in 10.0 mi NNW 5.8 mph - N/A   Clear
5:53 AM 37.0 °F 33.3 °F 30.9 °F 79% 30.12 in 10.0 mi NNW 4.6 mph - N/A   Clear
6:53 AM 39.9 °F 35.1 °F 32.0 °F 73% 30.14 in 10.0 mi NW 6.9 mph - N/A   Clear
7:53 AM 44.1 °F 40.1 °F 30.9 °F 60% 30.14 in 10.0 mi North 6.9 mph - N/A   Clear
8:53 AM 48.0 °F - 30.0 °F 50% 30.14 in 10.0 mi Variable 4.6 mph - N/A   Clear
9:53 AM 52.0 °F - 28.0 °F 40% 30.14 in 10.0 mi North 11.5 mph 16.1 mph N/A   Clear
10:53 AM 53.1 °F - 26.1 °F 35% 30.12 in 10.0 mi NW 9.2 mph 17.3 mph N/A   Clear
11:53 AM 54.0 °F - 28.0 °F 37% 30.11 in 10.0 mi NNW 8.1 mph 19.6 mph N/A   Clear
12:53 PM 55.9 °F - 27.0 °F 33% 30.10 in 10.0 mi WNW 12.7 mph 20.7 mph N/A   Clear
1:53 PM 57.0 °F - 26.1 °F 30% 30.09 in 10.0 mi NW 9.2 mph 17.3 mph N/A   Clear
2:53 PM 57.9 °F - 21.0 °F 24% 30.08 in 10.0 mi NW 11.5 mph - N/A   Clear
3:53 PM 60.1 °F - 27.0 °F 28% 30.05 in 10.0 mi NNW 9.2 mph - N/A   Clear
4:53 PM 60.1 °F - 24.1 °F 25% 30.04 in 10.0 mi West 8.1 mph - N/A   Clear
5:53 PM 61.0 °F - 24.1 °F 24% 30.03 in 10.0 mi NNW 8.1 mph - N/A   Clear
6:53 PM 59.0 °F - 25.0 °F 27% 30.03 in 10.0 mi WNW 9.2 mph - N/A   Clear
7:53 PM 55.9 °F - 27.0 °F 33% 30.03 in 10.0 mi West 4.6 mph - N/A   Clear
8:53 PM 54.0 °F - 28.0 °F 37% 30.03 in 10.0 mi Calm Calm - N/A   Clear
9:53 PM 53.1 °F - 28.9 °F 40% 30.05 in 10.0 mi West 4.6 mph - N/A   Clear
10:53 PM 50.0 °F - 30.9 °F 48% 30.06 in 10.0 mi West 3.5 mph - N/A   Clear
11:53 PM 50.0 °F - 30.9 °F 48% 30.06 in 10.0 mi Calm Calm - N/A   Overcast